Change the Weather History Date:

Wednesday, November 27, 2013

  Actual Average Record
Temperature  
Mean Temperature 18 °F -  
Max Temperature 19 °F 10 °F 42 °F (1976)
Min Temperature 16 °F -4 °F -37 °F (1955)
Degree Days  
Heating Degree Days 48    
Moisture  
Dew Point 16 °F    
Average Humidity 90    
Maximum Humidity 93    
Minimum Humidity 78    
Precipitation  
Precipitation 0.08 in - - ()
Sea Level Pressure  
Sea Level Pressure 29.70 in    
Wind  
Wind Speed 0 mph (SE)    
Max Wind Speed 4 mph    
Max Gust Speed -    
Visibility 5 miles    
Events Snow    
Averages and records for this station are not official NWS values.
T = Trace of Precipitation, MM = Missing Value Source: NWS Daily Summary

Daily Weather History Graph

Daily Weather History Graph

Search for Another Location

Airport or City:

Trip Planner

Search our weather history database for the weather conditions in past years. The results will help you decide how hot, cold, wet, or windy it might be!

Date:

Astronomy

Nov. 27, 2013 Rise Set
Actual Time 9:28 AM AKST 3:30 PM AKST
Civil Twilight 8:28 AM AKST 4:30 PM AKST
Nautical Twilight 7:29 AM AKST 5:29 PM AKST
Astronomical Twilight 6:35 AM AKST 6:23 PM AKST
Moon 1:56 AM AKST (11/27) 1:47 PM AKST (11/27)
Length of Visible Light 8h 01m
Length of Day
6h 02m
Waning Crescent, 30% of the Moon is Illuminated
Nov 27
Waning Crescent
Dec 2
New
Dec 9
First Quarter
Dec 17
Full
Dec 25
Last Quarter

Hourly Weather History & Observations

Time (AKST) Temp. Windchill Dew Point Humidity Pressure Visibility Wind Dir Wind Speed Gust Speed Precip Events Conditions
12:53 AM 19.0 °F - 16.0 °F 88% 30.00 in 2.5 mi Calm Calm - 0.02 in Snow Light Snow
1:03 AM 18.0 °F - 16.0 °F 92% 29.87 in 3.0 mi Calm Calm - 0.00 in Snow Light Snow
1:12 AM 18.0 °F - 16.0 °F 92% 29.87 in 2.5 mi Calm Calm - 0.00 in Snow Light Snow
1:36 AM 18.0 °F - 16.0 °F 92% 29.87 in 3.0 mi Calm Calm - 0.01 in Snow Light Snow
1:43 AM 18.0 °F - 16.0 °F 92% 29.86 in 2.5 mi Calm Calm - 0.01 in Snow Light Snow
1:53 AM 18.0 °F - 16.0 °F 92% 29.99 in 2.5 mi Calm Calm - 0.01 in Snow Light Snow
3:53 AM 19.0 °F - 16.0 °F 88% 29.95 in 2.5 mi Calm Calm - 0.01 in Snow Light Snow
4:09 AM 18.0 °F - 16.0 °F 92% 29.82 in 3.0 mi Calm Calm - 0.00 in Snow Light Snow
4:53 AM 19.0 °F - 16.0 °F 88% 29.93 in 6.0 mi Calm Calm - 0.00 in   Overcast
5:53 AM 19.0 °F - 16.0 °F 88% 29.91 in 10.0 mi Calm Calm - N/A   Overcast
6:46 AM 18.0 °F - 15.1 °F 88% 29.78 in 10.0 mi Calm Calm - N/A   Overcast
6:53 AM 18.0 °F - 15.1 °F 88% 29.89 in 10.0 mi Calm Calm - N/A   Overcast
7:53 AM 19.0 °F - 16.0 °F 88% 29.88 in 10.0 mi Calm Calm - N/A   Overcast
8:34 AM 18.0 °F - 16.0 °F 92% 29.75 in 10.0 mi Calm Calm - N/A   Overcast
8:53 AM 19.0 °F - 15.1 °F 85% 29.86 in 10.0 mi Calm Calm - N/A   Overcast
9:53 AM 18.0 °F - 16.0 °F 92% 29.85 in 10.0 mi Calm Calm - N/A   Overcast
10:14 AM 18.0 °F - 16.0 °F 92% 29.72 in 8.0 mi Calm Calm - N/A   Overcast
10:35 AM 19.0 °F - 16.0 °F 88% 29.71 in 6.0 mi Calm Calm - N/A   Overcast
10:53 AM 19.0 °F - 16.0 °F 88% 29.82 in 8.0 mi Calm Calm - N/A   Overcast
11:01 AM 19.0 °F - 17.1 °F 92% 29.70 in 10.0 mi Calm Calm - N/A   Overcast
11:53 AM 19.9 °F - 16.0 °F 85% 29.79 in 10.0 mi Calm Calm - N/A   Overcast
12:48 PM 19.4 °F - 17.6 °F 93% 29.65 in 2.0 mi Calm Calm - 0.00 in Snow Light Snow
12:53 PM 19.9 °F - 17.1 °F 89% 29.76 in 1.5 mi Calm Calm - 0.00 in Snow Light Snow
1:02 PM 19.9 °F - 17.1 °F 89% 29.64 in 1.2 mi Calm Calm - 0.00 in Snow Light Snow
1:53 PM 19.9 °F - 17.1 °F 89% 29.73 in 1.0 mi Calm Calm - 0.02 in Snow Light Snow
2:48 PM 19.4 °F - 17.6 °F 93% 29.59 in 1.5 mi Calm Calm - 0.01 in Snow Light Snow
2:53 PM 19.9 °F - 17.1 °F 89% 29.70 in 1.5 mi Calm Calm - 0.01 in Snow Light Snow
3:35 PM 19.9 °F 14.9 °F 17.1 °F 89% 29.57 in 2.0 mi SE 3.5 mph - 0.01 in Snow Light Snow
3:51 PM 19.4 °F 14.3 °F 17.6 °F 93% 29.56 in 1.5 mi SE 3.5 mph - 0.01 in Snow Light Snow
3:53 PM 19.0 °F 13.9 °F 17.1 °F 92% 29.68 in 1.5 mi SE 3.5 mph - 0.01 in Snow Light Snow
4:02 PM 19.0 °F - 17.1 °F 92% 29.56 in 3.0 mi Calm Calm - 0.01 in Snow Light Snow
4:16 PM 19.0 °F - 17.1 °F 92% 29.55 in 2.0 mi Calm Calm - 0.01 in Snow Light Snow
4:48 PM 17.6 °F - 15.8 °F 93% 29.53 in 3.0 mi Calm Calm - 0.02 in Snow Light Snow
4:53 PM 18.0 °F - 16.0 °F 92% 29.64 in 3.0 mi Calm Calm - 0.02 in Snow Light Snow
5:42 PM 18.0 °F - 16.0 °F 92% 29.51 in 2.5 mi Calm Calm - 0.00 in Snow Light Snow
5:53 PM 18.0 °F - 16.0 °F 92% 29.62 in 2.5 mi Calm Calm - 0.00 in Snow Light Snow
6:01 PM 18.0 °F - 16.0 °F 92% 29.50 in 4.0 mi Calm Calm - 0.00 in Snow Light Snow
6:53 PM 18.0 °F - 16.0 °F 92% 29.61 in 10.0 mi Calm Calm - 0.01 in   Overcast
7:08 PM 19.0 °F - 16.0 °F 88% 29.48 in 8.0 mi Calm Calm - 0.00 in Snow Light Snow
7:53 PM 19.0 °F - 16.0 °F 88% 29.57 in 4.0 mi Calm Calm - 0.00 in Snow Light Snow
8:53 PM 19.0 °F - 16.0 °F 88% 29.57 in 7.0 mi Calm Calm - 0.00 in   Overcast
9:48 PM 19.4 °F - 17.6 °F 93% 29.46 in 4.0 mi Calm Calm - 0.00 in Snow Light Snow
9:53 PM 19.0 °F - 17.1 °F 92% 29.57 in 3.0 mi Calm Calm - 0.00 in Snow Light Snow
10:00 PM 19.0 °F - 17.1 °F 92% 29.45 in 2.5 mi North - - 0.00 in Snow Light Snow
10:02 PM 19.0 °F - 17.1 °F 92% 29.45 in - North - - 0.00 in   Unknown
10:53 PM 19.0 °F 13.9 °F 16.0 °F 88% 29.57 in 4.0 mi NNW 3.5 mph - 0.00 in Snow Light Snow
11:05 PM 19.0 °F - 16.0 °F 88% 29.46 in 1.8 mi Calm Calm - 0.01 in Snow Light Snow
11:17 PM 19.0 °F - 16.0 °F 88% 29.47 in 1.5 mi Calm Calm - 0.01 in Snow Light Snow
11:53 PM 19.0 °F 13.9 °F 16.0 °F 88% 29.58 in 1.5 mi West 3.5 mph - 0.02 in Snow Light Snow